Flag for Germany Weather past 2 weeks in Marburg, Hesse, Germany

Now
45 °F

Fog.


Feels Like: 45 °F
Forecast: 50 / 75 °F
Wind: 2 mph from Northwest

Location: Fritzlar Airport

Current Time: Jul 31, 2015 at 7:16:56 AM

Latest Report: Jul 31, 2015 at 6:20 AM


Visibility: N/A

Pressure: 30.12 "Hg

Humidity: 93%

Dew point: 43 °F

Location of MarburgLocation

Historic Weather in Marburg — Graph

°F

Marburg temperature yesterday

Maximum temperature yesterday: 68 °F (at 3:20 PM)
Minimum temperature yesterday: 46 °F (at 3:20 AM)
Average temperature yesterday: 57 °F

Past Weeks' High & Low Weather Summary

 TemperatureHumidityPressure
High93 °F (Jul 17, 4:20 PM)100% (Jul 16, 5:20 AM)30.09 "Hg (Jul 16, 5:20 AM)
Low45 °F (Jul 31, 4:20 AM)24% (Jul 17, 5:20 PM)29.56 "Hg (Jul 25, 10:20 AM)
Average65 °F71%29.88 "Hg
* Reported Jul 16 5:20 AM — Jul 31 5:20 AM, Marburg, Weather by CustomWeather, © 2015

Note: Actual official high and low records may vary slightly from our data, if they occured in-between our weather recording intervals... More about our weather records

Advertising

Marburg weather history for previous 24 hours

 ConditionsComfort  
Time TempWeatherWind HumidityBarometerVisibility
5:20 AM
Fri, Jul 31
45 °FFog.1 mph93%30.09 "HgN/A
4:20 AM45 °FFog.1 mph93%30.09 "HgN/A
3:20 AM46 °FPassing clouds.3 mph93%30.09 "HgN/A
2:20 AM48 °FPassing clouds.2 mph94%30.09 "HgN/A
1:20 AM48 °FPassing clouds.1 mph94%30.09 "HgN/A
12:20 AM48 °FPassing clouds.1 mph94%30.07 "HgN/A
11:20 PM
Thu, Jul 30
50 °FPassing clouds.1 mph88%30.07 "HgN/A
10:20 PM54 °FPassing clouds.2 mph88%30.04 "HgN/A
9:20 PM55 °FScattered clouds.3 mph82%30.04 "HgN/A
8:20 PM61 °FBroken clouds.5 mph63%30.01 "HgN/A
7:20 PM61 °FScattered showers. Broken clouds.8 mph63%30.01 "HgN/A
6:20 PM61 °FScattered clouds.7 mph63%29.98 "HgN/A
5:20 PM59 °FSprinkles. Scattered clouds.12 mph68%30.01 "HgN/A
5:00 PM61 °FScattered showers. Scattered clouds.14 mph63%29.98 "HgN/A
4:20 PM66 °FScattered clouds.14 mph46%29.95 "HgN/A
3:20 PM68 °FScattered showers. Scattered clouds.15 mph40%29.95 "HgN/A
2:20 PM64 °FScattered clouds.8 mph46%29.95 "HgN/A
1:20 PM64 °FPartly sunny.14 mph46%29.95 "HgN/A
12:20 PM64 °FPartly sunny.12 mph43%29.95 "HgN/A
11:20 AM61 °FPassing clouds.12 mph59%29.95 "HgN/A
10:20 AM61 °FPassing clouds.12 mph59%29.95 "HgN/A
9:20 AM59 °FScattered clouds.10 mph63%29.95 "HgN/A
8:20 AM54 °FPassing clouds.12 mph77%29.92 "HgN/A
7:20 AM50 °FPassing clouds.9 mph88%29.92 "HgN/A
Weather by CustomWeather, © 2015

See weather overviewHow to use our weather pages